Station Historical Data
Daily Summary for March 28, 2012 Units:  English    Metric   Both
« Previous Day
Next Day »
Daily Weekly Monthly Yearly Custom
  High: Low: Average:
Temperature: 81.2 °F 59.1 °F 69.3 °F
Dew Point: 63.3 °F 52.1 °F 56.4 °F
Humidity: 85% 42% 65%
Wind Speed: 13.0mph 0.0mph 3.6mph
Wind Gust: 17.0mph - -
Wind- - SSW
Pressure: 30.10 in 29.94 in -
Precipitation: 0.00 in    
Historical Graphs
 
 
Tabular Data for March 28, 2012
Time Temperature Dew Point Pressure Wind Wind Speed Wind Gust Humidity Rainfall Rate (Hourly) Conditions
00:00 66.5 °F 52.7 °F 30.06 in SSE 3.0 mph 4.0 mph 61% 0.00 in
00:05 66.5 °F 53.1 °F 30.06 in South 2.0 mph 3.0 mph 62% 0.00 in
00:10 66.5 °F 53.1 °F 30.06 in SSE 2.0 mph 3.0 mph 62% 0.00 in
00:15 66.3 °F 52.9 °F 30.05 in SSE 3.0 mph 4.0 mph 62% 0.00 in
00:20 66.0 °F 53.1 °F 30.05 in SSE 2.0 mph 2.0 mph 63% 0.00 in
00:25 65.8 °F 52.9 °F 30.05 in SSE 2.0 mph 2.0 mph 63% 0.00 in
00:30 65.4 °F 52.9 °F 30.05 in SE 2.0 mph 2.0 mph 64% 0.00 in
00:35 65.4 °F 52.9 °F 30.05 in SSE 1.0 mph 2.0 mph 64% 0.00 in
00:40 65.2 °F 52.7 °F 30.05 in SE 1.0 mph 1.0 mph 64% 0.00 in
00:46 65.1 °F 52.6 °F 30.05 in SE 1.0 mph 1.0 mph 64% 0.00 in
00:51 64.9 °F 52.9 °F 30.05 in SE 1.0 mph 1.0 mph 65% 0.00 in
00:56 64.5 °F 52.9 °F 30.05 in SE 1.0 mph 2.0 mph 66% 0.00 in
01:01 64.1 °F 52.9 °F 30.05 in SE 2.0 mph 3.0 mph 67% 0.00 in
01:06 64.3 °F 53.1 °F 30.05 in SE 2.0 mph 4.0 mph 67% 0.00 in
01:11 64.6 °F 53.0 °F 30.05 in SE 2.0 mph 3.0 mph 66% 0.00 in
01:16 64.7 °F 52.7 °F 30.05 in ESE 2.0 mph 3.0 mph 65% 0.00 in
01:21 64.5 °F 52.9 °F 30.05 in SE 1.0 mph 3.0 mph 66% 0.00 in
01:26 64.1 °F 52.5 °F 30.05 in SE 3.0 mph 3.0 mph 66% 0.00 in
01:31 64.3 °F 52.7 °F 30.05 in ESE 3.0 mph 4.0 mph 66% 0.00 in
01:36 64.3 °F 52.7 °F 30.05 in ESE 3.0 mph 3.0 mph 66% 0.00 in
01:41 64.4 °F 52.4 °F 30.04 in SE 2.0 mph 3.0 mph 65% 0.00 in
01:47 64.3 °F 52.7 °F 30.04 in SE 1.0 mph 4.0 mph 66% 0.00 in
01:52 64.0 °F 52.4 °F 30.04 in SE 2.0 mph 3.0 mph 66% 0.00 in
01:57 63.9 °F 52.7 °F 30.04 in SE 1.0 mph 3.0 mph 67% 0.00 in
02:02 63.5 °F 52.4 °F 30.04 in SE 1.0 mph 2.0 mph 67% 0.00 in
02:07 63.4 °F 52.7 °F 30.04 in Calm   3.0 mph 68% 0.00 in
02:12 63.0 °F 52.3 °F 30.04 in SE 1.0 mph 1.0 mph 68% 0.00 in
02:17 62.8 °F 52.5 °F 30.04 in SE 1.0 mph 2.0 mph 69% 0.00 in
02:22 62.4 °F 52.5 °F 30.04 in ESE 2.0 mph 2.0 mph 70% 0.00 in
02:27 62.4 °F 52.5 °F 30.04 in SE 2.0 mph 3.0 mph 70% 0.00 in
02:32 62.6 °F 52.3 °F 30.05 in SE 2.0 mph 3.0 mph 69% 0.00 in
02:37 62.4 °F 52.5 °F 30.05 in SE 1.0 mph 1.0 mph 70% 0.00 in
02:42 62.2 °F 52.3 °F 30.05 in SE 1.0 mph 1.0 mph 70% 0.00 in
02:47 61.9 °F 52.4 °F 30.05 in SSE 1.0 mph 1.0 mph 71% 0.00 in
02:52 61.7 °F 52.2 °F 30.05 in SSE 1.0 mph 1.0 mph 71% 0.00 in
02:57 61.6 °F 52.1 °F 30.04 in SSE 1.0 mph 1.0 mph 71% 0.00 in
03:02 61.5 °F 52.4 °F 30.04 in SE 1.0 mph 1.0 mph 72% 0.00 in
03:07 61.6 °F 52.5 °F 30.04 in SE 1.0 mph 1.0 mph 72% 0.00 in
03:12 61.5 °F 52.4 °F 30.04 in South 1.0 mph 2.0 mph 72% 0.00 in
03:17 61.7 °F 52.6 °F 30.05 in Calm   2.0 mph 72% 0.00 in
03:22 61.8 °F 52.3 °F 30.04 in South 1.0 mph 1.0 mph 71% 0.00 in
03:27 62.2 °F 52.7 °F 30.04 in SE 1.0 mph 2.0 mph 71% 0.00 in
03:32 62.2 °F 52.7 °F 30.04 in SSE 1.0 mph 2.0 mph 71% 0.00 in
03:37 62.1 °F 52.6 °F 30.04 in SSE 1.0 mph 2.0 mph 71% 0.00 in
03:42 62.2 °F 52.7 °F 30.04 in SSE 2.0 mph 2.0 mph 71% 0.00 in
03:47 62.2 °F 52.7 °F 30.04 in SE 2.0 mph 2.0 mph 71% 0.00 in
03:52 62.2 °F 52.7 °F 30.04 in SSE 1.0 mph 2.0 mph 71% 0.00 in
03:57 62.1 °F 52.6 °F 30.04 in SSE 1.0 mph 1.0 mph 71% 0.00 in
04:02 62.0 °F 52.9 °F 30.03 in SSE 1.0 mph 1.0 mph 72% 0.00 in
04:08 61.8 °F 52.7 °F 30.03 in SSE 1.0 mph 1.0 mph 72% 0.00 in
04:13 61.6 °F 52.9 °F 30.03 in SSE 1.0 mph 2.0 mph 73% 0.00 in
04:18 61.5 °F 52.8 °F 30.03 in Calm   2.0 mph 73% 0.00 in
04:23 61.3 °F 52.6 °F 30.03 in SSE 1.0 mph 2.0 mph 73% 0.00 in
04:28 61.1 °F 52.8 °F 30.03 in SSE 1.0 mph 2.0 mph 74% 0.00 in
04:33 61.0 °F 52.7 °F 30.03 in SSE 1.0 mph 2.0 mph 74% 0.00 in
04:38 61.0 °F 52.7 °F 30.04 in SE 2.0 mph 2.0 mph 74% 0.00 in
04:43 60.8 °F 52.5 °F 30.03 in SSE 1.0 mph 2.0 mph 74% 0.00 in
04:48 60.8 °F 52.5 °F 30.04 in SSE 1.0 mph 2.0 mph 74% 0.00 in
04:53 60.8 °F 52.5 °F 30.04 in SE 1.0 mph 2.0 mph 74% 0.00 in
04:58 60.4 °F 52.5 °F 30.04 in Calm   1.0 mph 75% 0.00 in
05:03 60.1 °F 52.5 °F 30.04 in SSE 1.0 mph 2.0 mph 76% 0.00 in
05:08 60.1 °F 52.5 °F 30.04 in SSE 1.0 mph 1.0 mph 76% 0.00 in
05:13 60.2 °F 52.6 °F 30.04 in SSE 1.0 mph 1.0 mph 76% 0.00 in
05:18 60.1 °F 52.5 °F 30.04 in South 2.0 mph 2.0 mph 76% 0.00 in
05:23 59.8 °F 52.2 °F 30.04 in SE 2.0 mph 2.0 mph 76% 0.00 in
05:28 59.3 °F 52.5 °F 30.04 in SSE 1.0 mph 3.0 mph 78% 0.00 in
05:33 59.4 °F 52.5 °F 30.04 in SSE 3.0 mph 3.0 mph 78% 0.00 in
05:38 59.7 °F 52.5 °F 30.04 in SSE 2.0 mph 3.0 mph 77% 0.00 in
05:43 59.9 °F 52.7 °F 30.05 in SSE 3.0 mph 3.0 mph 77% 0.00 in
05:48 59.8 °F 52.6 °F 30.05 in SSE 1.0 mph 2.0 mph 77% 0.00 in
05:53 59.6 °F 52.4 °F 30.05 in South 2.0 mph 2.0 mph 77% 0.00 in
05:59 59.8 °F 52.6 °F 30.05 in SSE 2.0 mph 2.0 mph 77% 0.00 in
06:04 59.6 °F 52.7 °F 30.05 in SSE 2.0 mph 3.0 mph 78% 0.00 in
06:09 59.3 °F 52.8 °F 30.05 in SSE 2.0 mph 3.0 mph 79% 0.00 in
06:14 59.2 °F 52.7 °F 30.05 in SSE 2.0 mph 2.0 mph 79% 0.00 in
06:19 59.1 °F 52.6 °F 30.05 in SSE 2.0 mph 2.0 mph 79% 0.00 in
06:24 59.2 °F 52.7 °F 30.05 in SSW 2.0 mph 3.0 mph 79% 0.00 in
06:29 59.3 °F 52.8 °F 30.05 in SE 3.0 mph 4.0 mph 79% 0.00 in
06:34 59.5 °F 53.0 °F 30.06 in SSE 4.0 mph 5.0 mph 79% 0.00 in
06:39 59.8 °F 52.9 °F 30.06 in SSE 1.0 mph 3.0 mph 78% 0.00 in
06:44 59.8 °F 52.9 °F 30.06 in South 3.0 mph 3.0 mph 78% 0.00 in
06:49 60.0 °F 53.1 °F 30.06 in South 4.0 mph 4.0 mph 78% 0.00 in
06:54 60.4 °F 53.5 °F 30.06 in SSE 3.0 mph 5.0 mph 78% 0.00 in
06:59 60.6 °F 53.7 °F 30.06 in SSW 4.0 mph 4.0 mph 78% 0.00 in
07:04 60.7 °F 53.8 °F 30.06 in South 3.0 mph 6.0 mph 78% 0.00 in
07:09 60.9 °F 54.0 °F 30.06 in SSW 2.0 mph 6.0 mph 78% 0.00 in
07:14 60.9 °F 54.0 °F 30.06 in SW 4.0 mph 5.0 mph 78% 0.00 in
07:19 60.7 °F 54.2 °F 30.06 in SSE 4.0 mph 4.0 mph 79% 0.00 in
07:24 60.5 °F 54.0 °F 30.06 in SSW 4.0 mph 5.0 mph 79% 0.00 in
07:29 60.2 °F 54.4 °F 30.07 in SSW 3.0 mph 4.0 mph 81% 0.00 in
07:34 60.0 °F 54.2 °F 30.07 in SSW 2.0 mph 3.0 mph 81% 0.00 in
07:39 60.0 °F 54.2 °F 30.07 in SW 4.0 mph 5.0 mph 81% 0.00 in
07:44 59.8 °F 54.0 °F 30.07 in SW 4.0 mph 4.0 mph 81% 0.00 in
07:50 59.5 °F 54.0 °F 30.07 in SSW 3.0 mph 3.0 mph 82% 0.00 in
07:55 59.4 °F 54.2 °F 30.08 in SW 3.0 mph 4.0 mph 83% 0.00 in
08:00 59.7 °F 54.2 °F 30.08 in WSW 2.0 mph 4.0 mph 82% 0.00 in
08:05 59.7 °F 54.2 °F 30.08 in SW 2.0 mph 3.0 mph 82% 0.00 in
08:10 59.5 °F 54.3 °F 30.08 in SSW 2.0 mph 3.0 mph 83% 0.00 in
08:15 59.3 °F 54.2 °F 30.08 in SW 3.0 mph 3.0 mph 83% 0.00 in
08:20 59.3 °F 54.5 °F 30.09 in SSW 3.0 mph 3.0 mph 84% 0.00 in
08:25 59.7 °F 54.9 °F 30.09 in SW 2.0 mph 6.0 mph 84% 0.00 in
08:30 59.7 °F 54.9 °F 30.09 in SW 3.0 mph 3.0 mph 84% 0.00 in
08:35 59.8 °F 55.3 °F 30.09 in SSW 2.0 mph 3.0 mph 85% 0.00 in
08:36 59.8 °F 55.0 °F 30.09 in SW 1.0 mph 3.0 mph 84% 0.00 in
08:41 60.0 °F 55.5 °F 30.09 in WSW 2.0 mph 3.0 mph 85% 0.00 in
08:46 60.4 °F 55.5 °F 30.10 in SSW 1.0 mph 4.0 mph 84% 0.00 in
08:51 60.8 °F 55.9 °F 30.10 in SW 2.0 mph 3.0 mph 84% 0.00 in
08:56 61.3 °F 56.4 °F 30.10 in SW 2.0 mph 3.0 mph 84% 0.00 in
09:01 62.0 °F 57.1 °F 30.10 in SW 2.0 mph 4.0 mph 84% 0.00 in
09:06 62.8 °F 57.6 °F 30.10 in SSW 5.0 mph 5.0 mph 83% 0.00 in
09:11 63.2 °F 57.6 °F 30.10 in SW 2.0 mph 7.0 mph 82% 0.00 in
09:16 63.5 °F 57.9 °F 30.10 in SSW 3.0 mph 6.0 mph 82% 0.00 in
09:21 64.0 °F 58.1 °F 30.10 in SW 7.0 mph 8.0 mph 81% 0.00 in
09:26 64.1 °F 57.8 °F 30.10 in South 4.0 mph 8.0 mph 80% 0.00 in
09:31 64.1 °F 58.2 °F 30.10 in SW 8.0 mph 8.0 mph 81% 0.00 in
09:36 64.2 °F 58.3 °F 30.10 in SW 1.0 mph 5.0 mph 81% 0.00 in
09:41 64.3 °F 58.7 °F 30.10 in SSW 3.0 mph 7.0 mph 82% 0.00 in
09:46 64.5 °F 58.5 °F 30.10 in SSW 3.0 mph 6.0 mph 81% 0.00 in
09:51 64.8 °F 59.2 °F 30.10 in SW 2.0 mph 8.0 mph 82% 0.00 in
09:56 65.6 °F 59.6 °F 30.10 in South 3.0 mph 6.0 mph 81% 0.00 in
10:01 65.8 °F 59.1 °F 30.10 in SSW 5.0 mph 9.0 mph 79% 0.00 in
10:07 65.5 °F 59.2 °F 30.10 in SSW 4.0 mph 11.0 mph 80% 0.00 in
10:12 65.8 °F 59.5 °F 30.10 in SSW 3.0 mph 6.0 mph 80% 0.00 in
10:17 66.2 °F 60.2 °F 30.10 in SW 6.0 mph 7.0 mph 81% 0.00 in
10:22 66.7 °F 60.3 °F 30.10 in SSW 5.0 mph 6.0 mph 80% 0.00 in
10:27 66.5 °F 60.2 °F 30.10 in SW 4.0 mph 8.0 mph 80% 0.00 in
10:32 66.9 °F 60.5 °F 30.09 in WSW 5.0 mph 7.0 mph 80% 0.00 in
10:37 67.0 °F 60.6 °F 30.09 in SSE 4.0 mph 6.0 mph 80% 0.00 in
10:42 67.3 °F 60.9 °F 30.10 in SSE 4.0 mph 8.0 mph 80% 0.00 in
10:47 68.3 °F 61.2 °F 30.10 in SSW 5.0 mph 5.0 mph 78% 0.00 in
10:52 69.1 °F 61.2 °F 30.10 in WSW 3.0 mph 6.0 mph 76% 0.00 in
10:57 69.7 °F 61.8 °F 30.10 in SW 6.0 mph 8.0 mph 76% 0.00 in
11:02 69.8 °F 61.5 °F 30.09 in WSW 4.0 mph 10.0 mph 75% 0.00 in
11:07 70.5 °F 61.8 °F 30.09 in WSW 6.0 mph 9.0 mph 74% 0.00 in
11:12 71.2 °F 62.1 °F 30.09 in SSW 6.0 mph 7.0 mph 73% 0.00 in
11:17 71.9 °F 62.4 °F 30.09 in SSW 7.0 mph 8.0 mph 72% 0.00 in
11:22 72.2 °F 62.3 °F 30.09 in SW 11.0 mph 11.0 mph 71% 0.00 in
11:27 71.8 °F 61.5 °F 30.09 in SW 6.0 mph 10.0 mph 70% 0.00 in
11:32 71.7 °F 61.4 °F 30.09 in WSW 9.0 mph 10.0 mph 70% 0.00 in
11:37 71.8 °F 61.5 °F 30.09 in SW 8.0 mph 10.0 mph 70% 0.00 in
11:42 72.7 °F 62.4 °F 30.09 in SW 3.0 mph 10.0 mph 70% 0.00 in
11:47 73.4 °F 62.2 °F 30.09 in SSW 6.0 mph 8.0 mph 68% 0.00 in
11:52 73.9 °F 61.4 °F 30.09 in SW 9.0 mph 12.0 mph 65% 0.00 in
11:57 73.7 °F 61.7 °F 30.09 in SSW 5.0 mph 8.0 mph 66% 0.00 in
12:02 73.9 °F 61.8 °F 30.09 in WSW 7.0 mph 9.0 mph 66% 0.00 in
12:07 74.4 °F 62.3 °F 30.09 in WSW 7.0 mph 9.0 mph 66% 0.00 in
12:12 74.1 °F 62.0 °F 30.08 in West 3.0 mph 7.0 mph 66% 0.00 in
12:17 73.8 °F 62.2 °F 30.09 in West 3.0 mph 7.0 mph 67% 0.00 in
12:23 74.4 °F 62.3 °F 30.08 in West 7.0 mph 8.0 mph 66% 0.00 in
12:28 74.8 °F 62.7 °F 30.08 in West 5.0 mph 12.0 mph 66% 0.00 in
12:33 74.9 °F 61.9 °F 30.08 in West 8.0 mph 8.0 mph 64% 0.00 in
12:38 75.1 °F 62.1 °F 30.08 in SW 4.0 mph 8.0 mph 64% 0.00 in
12:43 75.7 °F 62.7 °F 30.08 in WNW 7.0 mph 7.0 mph 64% 0.00 in
12:48 75.9 °F 62.4 °F 30.07 in WSW 10.0 mph 10.0 mph 63% 0.00 in
12:53 76.0 °F 62.0 °F 30.08 in SW 10.0 mph 14.0 mph 62% 0.00 in
12:58 76.4 °F 62.0 °F 30.07 in West 4.0 mph 9.0 mph 61% 0.00 in
13:03 76.7 °F 62.7 °F 30.07 in WSW 8.0 mph 11.0 mph 62% 0.00 in
13:08 77.0 °F 62.5 °F 30.07 in WSW 12.0 mph 12.0 mph 61% 0.00 in
13:13 77.1 °F 63.1 °F 30.06 in South 4.0 mph 10.0 mph 62% 0.00 in
13:18 77.5 °F 63.0 °F 30.06 in SW 5.0 mph 7.0 mph 61% 0.00 in
13:23 77.1 °F 63.1 °F 30.06 in SSW 4.0 mph 10.0 mph 62% 0.00 in
13:28 77.1 °F 62.6 °F 30.06 in SW 7.0 mph 7.0 mph 61% 0.00 in
13:33 77.2 °F 61.3 °F 30.06 in WSW 3.0 mph 9.0 mph 58% 0.00 in
13:38 77.1 °F 62.6 °F 30.05 in South 6.0 mph 10.0 mph 61% 0.00 in
13:43 77.8 °F 61.4 °F 30.05 in WNW 5.0 mph 8.0 mph 57% 0.00 in
13:48 78.3 °F 63.3 °F 30.05 in SSW 7.0 mph 9.0 mph 60% 0.00 in
13:53 78.1 °F 61.6 °F 30.05 in West 8.0 mph 12.0 mph 57% 0.00 in
13:58 78.4 °F 62.4 °F 30.05 in SW 8.0 mph 10.0 mph 58% 0.00 in
14:03 78.5 °F 62.0 °F 30.04 in SSW 5.0 mph 8.0 mph 57% 0.00 in
14:08 78.0 °F 61.5 °F 30.04 in WSW 4.0 mph 9.0 mph 57% 0.00 in
14:13 78.0 °F 62.0 °F 30.04 in WSW 6.0 mph 7.0 mph 58% 0.00 in
14:19 78.3 °F 60.8 °F 30.03 in SW 5.0 mph 7.0 mph 55% 0.00 in
14:24 78.4 °F 60.9 °F 30.03 in SW 11.0 mph 11.0 mph 55% 0.00 in
14:29 78.5 °F 60.0 °F 30.03 in WSW 10.0 mph 10.0 mph 53% 0.00 in
14:34 79.1 °F 60.5 °F 30.03 in SW 3.0 mph 9.0 mph 53% 0.00 in
14:39 79.7 °F 60.0 °F 30.02 in West 4.0 mph 6.0 mph 51% 0.00 in
14:44 80.0 °F 58.6 °F 30.02 in SW 9.0 mph 16.0 mph 48% 0.00 in
14:49 80.5 °F 60.2 °F 30.01 in SW 8.0 mph 12.0 mph 50% 0.00 in
14:54 79.5 °F 59.2 °F 30.01 in SW 5.0 mph 10.0 mph 50% 0.00 in
14:59 79.3 °F 58.5 °F 30.01 in SW 13.0 mph 15.0 mph 49% 0.00 in
15:04 78.9 °F 58.1 °F 30.01 in WSW 4.0 mph 12.0 mph 49% 0.00 in
15:09 78.6 °F 59.5 °F 30.00 in WSW 5.0 mph 8.0 mph 52% 0.00 in
15:14 79.0 °F 58.2 °F 30.01 in SW 9.0 mph 12.0 mph 49% 0.00 in
15:19 79.7 °F 57.1 °F 30.00 in WSW 7.0 mph 12.0 mph 46% 0.00 in
15:24 80.2 °F 59.3 °F 29.99 in WSW 6.0 mph 11.0 mph 49% 0.00 in
15:29 80.3 °F 57.7 °F 29.99 in SSW 8.0 mph 15.0 mph 46% 0.00 in
15:34 80.1 °F 57.5 °F 29.99 in SW 11.0 mph 14.0 mph 46% 0.00 in
15:39 79.6 °F 58.2 °F 29.99 in SW 6.0 mph 13.0 mph 48% 0.00 in
15:44 79.9 °F 58.5 °F 29.99 in WSW 11.0 mph 13.0 mph 48% 0.00 in
15:49 80.3 °F 57.0 °F 29.99 in SSW 6.0 mph 8.0 mph 45% 0.00 in
15:54 80.6 °F 57.3 °F 29.99 in SW 13.0 mph 17.0 mph 45% 0.00 in
15:59 80.4 °F 57.8 °F 29.98 in WSW 5.0 mph 12.0 mph 46% 0.00 in
16:04 80.7 °F 56.8 °F 29.98 in SW 7.0 mph 14.0 mph 44% 0.00 in
16:09 80.8 °F 57.5 °F 29.98 in WSW 6.0 mph 11.0 mph 45% 0.00 in
16:14 80.6 °F 57.3 °F 29.98 in SSW 6.0 mph 11.0 mph 45% 0.00 in
16:19 81.2 °F 58.5 °F 29.97 in South 5.0 mph 7.0 mph 46% 0.00 in
16:24 81.1 °F 57.2 °F 29.97 in SW 10.0 mph 10.0 mph 44% 0.00 in
16:29 80.9 °F 55.7 °F 29.97 in SSW 10.0 mph 15.0 mph 42% 0.00 in
16:34 80.4 °F 56.5 °F 29.97 in West 7.0 mph 13.0 mph 44% 0.00 in
16:40 80.8 °F 57.5 °F 29.97 in South 6.0 mph 7.0 mph 45% 0.00 in
16:45 80.7 °F 56.2 °F 29.96 in West 11.0 mph 16.0 mph 43% 0.00 in
16:50 79.8 °F 54.7 °F 29.97 in West 3.0 mph 10.0 mph 42% 0.00 in
16:55 79.6 °F 57.0 °F 29.97 in SSW 3.0 mph 10.0 mph 46% 0.00 in
17:01 79.5 °F 59.2 °F 29.97 in SW 8.0 mph 11.0 mph 50% 0.00 in
17:06 79.2 °F 59.0 °F 29.96 in SW 6.0 mph 10.0 mph 50% 0.00 in
17:11 79.1 °F 58.3 °F 29.96 in SSW 9.0 mph 10.0 mph 49% 0.00 in
17:16 79.2 °F 58.4 °F 29.96 in SW 9.0 mph 11.0 mph 49% 0.00 in
17:21 79.3 °F 58.5 °F 29.96 in SSE 3.0 mph 9.0 mph 49% 0.00 in
17:26 79.5 °F 56.9 °F 29.96 in South 8.0 mph 12.0 mph 46% 0.00 in
17:31 79.3 °F 56.8 °F 29.96 in WSW 11.0 mph 13.0 mph 46% 0.00 in
17:36 79.2 °F 56.7 °F 29.96 in WSW 6.0 mph 11.0 mph 46% 0.00 in
17:41 79.1 °F 56.6 °F 29.95 in SW 6.0 mph 9.0 mph 46% 0.00 in
17:46 79.3 °F 56.8 °F 29.95 in WSW 5.0 mph 12.0 mph 46% 0.00 in
17:51 79.3 °F 56.1 °F 29.95 in WSW 5.0 mph 8.0 mph 45% 0.00 in
17:56 79.5 °F 56.9 °F 29.95 in South 3.0 mph 9.0 mph 46% 0.00 in
18:01 79.4 °F 55.6 °F 29.95 in SW 7.0 mph 11.0 mph 44% 0.00 in
18:06 79.4 °F 55.6 °F 29.95 in SSW 7.0 mph 9.0 mph 44% 0.00 in
18:11 79.5 °F 56.3 °F 29.95 in SW 10.0 mph 10.0 mph 45% 0.00 in
18:16 79.5 °F 55.7 °F 29.94 in SW 8.0 mph 12.0 mph 44% 0.00 in
18:21 79.5 °F 56.3 °F 29.94 in WSW 5.0 mph 8.0 mph 45% 0.00 in
18:26 79.6 °F 56.4 °F 29.94 in SSW 5.0 mph 11.0 mph 45% 0.00 in
18:31 79.4 °F 56.2 °F 29.94 in SSW 3.0 mph 11.0 mph 45% 0.00 in
18:36 79.4 °F 55.6 °F 29.94 in SSW 4.0 mph 10.0 mph 44% 0.00 in
18:41 79.4 °F 56.8 °F 29.94 in SSW 4.0 mph 7.0 mph 46% 0.00 in
18:47 79.3 °F 56.8 °F 29.94 in SSW 9.0 mph 9.0 mph 46% 0.00 in
18:52 79.1 °F 57.2 °F 29.94 in SW 5.0 mph 7.0 mph 47% 0.00 in
18:57 79.0 °F 55.9 °F 29.94 in West 6.0 mph 9.0 mph 45% 0.00 in
19:02 78.8 °F 56.3 °F 29.94 in SW 7.0 mph 7.0 mph 46% 0.00 in
19:07 78.6 °F 56.7 °F 29.94 in WSW 3.0 mph 6.0 mph 47% 0.00 in
19:12 78.5 °F 56.6 °F 29.94 in WSW 4.0 mph 5.0 mph 47% 0.00 in
19:17 78.3 °F 57.0 °F 29.94 in SW 2.0 mph 4.0 mph 48% 0.00 in
19:22 78.1 °F 56.8 °F 29.94 in SW 3.0 mph 7.0 mph 48% 0.00 in
19:27 77.8 °F 57.1 °F 29.94 in SSE 1.0 mph 2.0 mph 49% 0.00 in
19:32 77.7 °F 57.0 °F 29.94 in SW 2.0 mph 3.0 mph 49% 0.00 in
19:37 77.5 °F 57.4 °F 29.94 in SW 1.0 mph 3.0 mph 50% 0.00 in
19:42 77.1 °F 57.0 °F 29.94 in SSW 1.0 mph 3.0 mph 50% 0.00 in
19:47 76.6 °F 57.1 °F 29.94 in South 2.0 mph 2.0 mph 51% 0.00 in
19:52 75.9 °F 57.0 °F 29.94 in SSE 2.0 mph 3.0 mph 52% 0.00 in
19:57 75.3 °F 57.0 °F 29.94 in SSE 2.0 mph 3.0 mph 53% 0.00 in
20:02 74.8 °F 57.1 °F 29.95 in SSE 2.0 mph 4.0 mph 54% 0.00 in
20:07 74.4 °F 57.2 °F 29.95 in SSE 2.0 mph 3.0 mph 55% 0.00 in
20:12 74.1 °F 56.9 °F 29.95 in SSE 3.0 mph 4.0 mph 55% 0.00 in
20:17 73.8 °F 56.6 °F 29.95 in South 1.0 mph 2.0 mph 55% 0.00 in
20:22 73.4 °F 56.8 °F 29.95 in South 2.0 mph 3.0 mph 56% 0.00 in
20:27 72.9 °F 56.8 °F 29.95 in SW 1.0 mph 1.0 mph 57% 0.00 in
20:32 72.5 °F 56.9 °F 29.95 in SSE 2.0 mph 3.0 mph 58% 0.00 in
20:37 72.1 °F 57.0 °F 29.95 in SSE 2.0 mph 2.0 mph 59% 0.00 in
20:43 71.8 °F 56.7 °F 29.95 in Calm   2.0 mph 59% 0.00 in
20:48 71.6 °F 56.5 °F 29.95 in SSE 1.0 mph 2.0 mph 59% 0.00 in
20:53 71.4 °F 56.3 °F 29.95 in SSE 2.0 mph 2.0 mph 59% 0.00 in
20:58 71.3 °F 56.2 °F 29.95 in SSE 2.0 mph 3.0 mph 59% 0.00 in
21:03 71.1 °F 56.5 °F 29.96 in SSE 2.0 mph 2.0 mph 60% 0.00 in
21:08 71.0 °F 56.0 °F 29.96 in SSE 1.0 mph 2.0 mph 59% 0.00 in
21:13 71.1 °F 56.1 °F 29.96 in SE 2.0 mph 4.0 mph 59% 0.00 in
21:18 71.1 °F 56.5 °F 29.96 in SSE 2.0 mph 3.0 mph 60% 0.00 in
21:23 70.8 °F 56.2 °F 29.96 in SSE 1.0 mph 2.0 mph 60% 0.00 in
21:28 70.6 °F 56.1 °F 29.96 in South 2.0 mph 2.0 mph 60% 0.00 in
21:33 70.5 °F 56.0 °F 29.96 in SSW 2.0 mph 2.0 mph 60% 0.00 in
21:38 70.3 °F 56.2 °F 29.97 in SSW 1.0 mph 1.0 mph 61% 0.00 in
21:43 70.1 °F 56.0 °F 29.97 in SSW 1.0 mph 2.0 mph 61% 0.00 in
21:48 69.9 °F 55.8 °F 29.97 in SSW 2.0 mph 3.0 mph 61% 0.00 in
21:53 69.9 °F 55.8 °F 29.97 in South 1.0 mph 3.0 mph 61% 0.00 in
21:58 69.7 °F 55.7 °F 29.97 in SE 2.0 mph 3.0 mph 61% 0.00 in
22:03 69.7 °F 56.1 °F 29.97 in South 2.0 mph 2.0 mph 62% 0.00 in
22:08 69.4 °F 55.8 °F 29.97 in South 1.0 mph 2.0 mph 62% 0.00 in
22:13 69.3 °F 55.7 °F 29.98 in SSE 2.0 mph 2.0 mph 62% 0.00 in
22:19 69.1 °F 56.0 °F 29.98 in SSW 1.0 mph 2.0 mph 63% 0.00 in
22:24 69.0 °F 55.9 °F 29.98 in SSW 1.0 mph 3.0 mph 63% 0.00 in
22:29 68.9 °F 55.8 °F 29.98 in Calm   2.0 mph 63% 0.00 in
22:34 68.7 °F 56.0 °F 29.98 in Calm   1.0 mph 64% 0.00 in
22:39 68.4 °F 55.8 °F 29.98 in South 1.0 mph 1.0 mph 64% 0.00 in
22:44 68.1 °F 55.9 °F 29.98 in SSW 1.0 mph 2.0 mph 65% 0.00 in
22:49 68.0 °F 55.8 °F 29.98 in SSE 1.0 mph 2.0 mph 65% 0.00 in
22:54 67.9 °F 55.7 °F 29.98 in SSE 2.0 mph 2.0 mph 65% 0.00 in
22:59 67.8 °F 55.6 °F 29.98 in SSE 2.0 mph 2.0 mph 65% 0.00 in
23:04 67.7 °F 55.5 °F 29.98 in SSE 1.0 mph 2.0 mph 65% 0.00 in
23:09 67.5 °F 55.8 °F 29.98 in South 1.0 mph 2.0 mph 66% 0.00 in
23:14 67.2 °F 55.5 °F 29.98 in SE 2.0 mph 2.0 mph 66% 0.00 in
23:19 67.1 °F 55.8 °F 29.98 in SSW 2.0 mph 2.0 mph 67% 0.00 in
23:24 66.9 °F 55.6 °F 29.98 in South 2.0 mph 3.0 mph 67% 0.00 in
23:29 66.8 °F 55.5 °F 29.97 in SW 1.0 mph 4.0 mph 67% 0.00 in
23:34 66.6 °F 55.7 °F 29.97 in SW 1.0 mph 2.0 mph 68% 0.00 in
23:39 66.4 °F 55.5 °F 29.98 in WSW 2.0 mph 4.0 mph 68% 0.00 in
23:44 66.4 °F 55.5 °F 29.98 in SW 2.0 mph 3.0 mph 68% 0.00 in
23:49 66.2 °F 55.7 °F 29.97 in SW 3.0 mph 4.0 mph 69% 0.00 in
23:54 65.8 °F 55.8 °F 29.97 in SW 1.0 mph 5.0 mph 70% 0.00 in
23:59 65.6 °F 55.6 °F 29.97 in SSW 2.0 mph 4.0 mph 70% 0.00 in
Compliments of Weather Underground